Weather reports worldwide

Advertisment
Barth, Germany (10180): temperature & dewpoint: 18.06.2018 16:00:00 - 24.06.2018 16:00:00 (CEST)Barth, Germany (10180): temperature 5cm & temperature -5cm: 18.06.2018 16:00:00 - 24.06.2018 16:00:00 (CEST)Barth, Germany (10180): temperature -20cm & temperature -100cm: 18.06.2018 16:00:00 - 24.06.2018 16:00:00 (CEST)Barth, Germany (10180): wind speed & gusts: 18.06.2018 16:00:00 - 24.06.2018 16:00:00 (CEST)Barth, Germany (10180): wind direction: 18.06.2018 16:00:00 - 24.06.2018 16:00:00 (CEST)Barth, Germany (10180): reduced air pressure: 18.06.2018 16:00:00 - 24.06.2018 16:00:00 (CEST)Barth, Germany (10180): visibility: 18.06.2018 16:00:00 - 24.06.2018 16:00:00 (CEST)Barth, Germany (10180): sunshine duration: 18.06.2018 16:00:00 - 24.06.2018 16:00:00 (CEST)Barth, Germany (10180): precipitation: 18.06.2018 16:00:00 - 24.06.2018 16:00:00 (CEST)
Date & Time tt [°C] td [°C] tt 5cm [°C] tt -5cm [°C] tt -20cm [°C] tt -100cm [°C] ff [km/h] ff [kn] fx [km/h] fx [kn] dd ppp [hPa] vv [km] sd [min] rr [mm]
24.06.2018 16:00:00 16,6 10,5 20,0 20,8 16,6 15,0 16 8 25 13 W 1017,2 27 12 0,0
24.06.2018 15:00:00 16,2 11,3 18,9 19,7 16,2 15,0 13 7 25 14 W 1017,2 23 3 0,0
24.06.2018 14:00:00 15,3 11,1 18,4 18,5 15,9 15,0 12 7 20 11 NNW 1017,6 23 9 0,0
24.06.2018 13:00:00 14,4 11,2 14,7 17,4 15,7 15,0 12 6 21 12 NNW 1017,5 31 0 0,2
24.06.2018 12:00:00 13,6 11,5 14,2 17,4 15,4 15,0 13 7 24 13 WNW 1017,4 5 0 0,0
24.06.2018 11:00:00 14,1 11,0 14,9 16,9 15,1 15,0 16 9 28 15 NW 1017,2 8 0 0,0
24.06.2018 10:00:00 14,5 10,9 16,4 16,4 14,9 15,0 19 10 29 15 W 1017,0 23 0 0,0
24.06.2018 09:00:00 14,3 11,0 16,4 15,4 14,7 15,0 16 9 25 14 WNW 1016,7 30 1 0,0
24.06.2018 08:00:00 13,0 11,2 13,8 14,0 14,7 15,0 14 8 26 14 WNW 1016,7 21 0 0,0
24.06.2018 07:00:00 13,4 10,6 13,5 13,6 14,7 15,1 16 9 27 15 WNW 1016,5 33 0 0,0
24.06.2018 06:00:00 13,5 10,5 13,3 13,1 14,8 15,1 12 6 22 12 WNW 1016,3 36 0 0,0
24.06.2018 05:00:00 13,1 10,5 12,5 12,7 14,9 15,1 10 5 15 8 WNW 1016,5 31 0 0,0
24.06.2018 04:00:00 11,8 9,8 10,1 12,3 15,1 15,1 7 4 19 10 WNW 1016,7 27 0 0,0
24.06.2018 03:00:00 13,5 10,2 12,7 13,0 15,3 15,1 13 7 27 14 WNW 1017,0 31 0 0,0
24.06.2018 02:00:00 13,6 10,8 13,0 13,0 15,5 15,1 11 6 21 11 WNW 1017,2 27 0 0,0
24.06.2018 01:00:00 12,8 10,3 10,8 12,6 15,8 15,1 11 6 19 10 WNW 1017,2 26 0 0,0
24.06.2018 00:00:00 13,1 10,6 11,6 13,1 16,2 15,1 13 7 21 11 WNW 1017,4 27 0 0,0
23.06.2018 23:00:00 13,9 11,1 12,7 13,9 16,5 15,1 16 8 29 15 W 1017,3 28 0 0,0
23.06.2018 22:00:00 13,7 10,5 12,3 14,1 16,9 15,1 11 6 26 14 WNW 1017,1 33 10 0,0
23.06.2018 21:00:00 14,6 10,4 13,7 15,4 17,2 15,2 18 10 32 18 W 1016,8 41 55 0,0
23.06.2018 20:00:00 15,4 10,8 15,4 16,4 17,4 15,2 19 10 39 21 W 1016,7 31 18 0,0
23.06.2018 19:00:00 16,1 11,0 17,5 17,6 17,6 15,2 20 11 40 22 W 1017,0 23 2 0,0
23.06.2018 18:00:00 15,9 9,9 16,8 18,6 17,6 15,2 28 15 42 23 W 1017,0 14 16 0,0
23.06.2018 17:00:00 16,3 9,9 17,3 20,6 17,3 15,2 30 16 44 24 W 1017,2 10 49 0,0
23.06.2018 16:00:00 17,7 10,0 21,5 20,7 17,0 15,2 29 16 44 24 W 1017,3 14 36 0,0
23.06.2018 15:00:00 17,0 10,1 18,7 20,2 16,6 15,2 29 16 48 26 W 1017,3 9 38 0,0
23.06.2018 14:00:00 16,9 10,5 19,2 19,8 16,1 15,2 31 17 47 25 W 1017,4 15 35 0,0
23.06.2018 13:00:00 16,9 9,2 21,6 18,9 15,7 15,2 22 12 40 22 WNW 1017,4 10 23 0,0
23.06.2018 12:00:00 15,7 8,7 18,5 18,8 15,2 15,2 27 15 42 23 WNW 1017,1 9 22 0,0
23.06.2018 11:00:00 15,1 8,7 18,3 18,1 14,8 15,3 27 14 44 24 WNW 1016,9 9 34 0,0
23.06.2018 10:00:00 14,2 8,9 16,1 16,0 14,4 15,3 23 12 37 20 WNW 1016,7 13 17 0,0
23.06.2018 09:00:00 13,5 8,7 15,8 14,8 14,2 15,3 20 11 30 16 WNW 1016,5 12 8 0,0
23.06.2018 08:00:00 12,5 8,0 13,8 13,2 14,1 15,3 17 9 35 19 WNW 1016,4 13 20 0,0
23.06.2018 07:00:00 12,2 7,3 13,6 12,0 14,2 15,3 21 11 35 19 WNW 1016,1 13 14 0,0
23.06.2018 06:00:00 11,7 6,7 11,5 11,4 14,3 15,3 22 12 36 19 WNW 1015,8 13 15 0,0
23.06.2018 05:00:00 11,7 6,8 11,2 11,1 14,6 15,3 19 10 38 21 WNW 1015,6 22 0 0,0
23.06.2018 04:00:00 11,8 6,6 11,2 11,3 14,8 15,3 24 13 48 26 WNW 1015,8 26 0 0,0
23.06.2018 03:00:00 12,3 6,8 11,8 11,6 15,1 15,3 27 14 44 24 W 1015,6 30 0 0,0
23.06.2018 02:00:00 12,5 6,5 11,9 11,9 15,4 15,3 29 16 48 26 WNW 1015,6 33 0 0,0
23.06.2018 01:00:00 13,0 7,8 12,4 12,3 15,6 15,4 26 14 50 27 WNW 1015,5 21 0 0,0
23.06.2018 00:00:00 13,2 8,3 12,7 12,7 16,0 15,4 26 14 50 27 WNW 1015,6 25 0 0,0
22.06.2018 23:00:00 13,6 8,9 12,9 12,8 16,3 15,4 26 14 48 26 W 1015,4 40 0 0,0
22.06.2018 22:00:00 13,9 9,0 13,2 13,5 16,7 15,4 30 16 51 28 W 1015,4 31 0 0,0
22.06.2018 21:00:00 14,3 9,0 14,1 14,2 17,1 15,4 29 15 51 28 W 1015,3 35 0 0,0
22.06.2018 20:00:00 14,3 8,5 14,0 14,9 17,5 15,4 29 15 56 31 W 1015,5 29 0 0,0
22.06.2018 19:00:00 14,8 7,7 14,8 15,9 17,8 15,4 34 18 56 30 W 1015,7 32 6 0,0
22.06.2018 18:00:00 16,7 8,1 17,8 18,3 18,0 15,4 33 18 54 29 W 1015,6 13 31 0,0
22.06.2018 17:00:00 16,3 9,6 17,1 19,2 18,0 15,4 29 16 51 27 W 1015,5 23 49 0,0
22.06.2018 16:00:00 17,6 7,7 20,1 20,7 17,7 15,4 37 20 51 28 W 1015,3 9 59 0,0
22.06.2018 15:00:00 17,3 9,5 19,8 21,1 17,3 15,5 31 17 47 25 W 1015,2 28 44 0,0
22.06.2018 14:00:00 17,2 9,7 21,0 22,3 16,7 15,5 29 16 42 23 W 1014,9 - 53 0,0
22.06.2018 13:00:00 16,6 9,7 20,9 21,4 16,0 15,5 27 15 41 22 W 1014,7 - 52 0,0
22.06.2018 12:00:00 16,2 9,8 20,4 19,9 15,4 15,5 29 15 41 22 W 1014,5 - 49 0,0
22.06.2018 11:00:00 14,4 8,5 16,8 16,7 15,0 15,5 25 13 39 21 W 1014,0 - 23 0,0
22.06.2018 10:00:00 14,4 7,5 17,0 17,1 14,6 15,5 30 16 45 24 W 1013,1 - 51 0,0
22.06.2018 09:00:00 13,9 8,3 17,0 15,7 14,2 15,5 30 16 46 25 WNW 1012,5 - 53 0,0
22.06.2018 08:00:00 12,8 8,6 14,6 13,3 14,0 15,5 19 10 40 22 W 1011,9 - 20 0,0
22.06.2018 07:00:00 11,3 9,7 11,9 13,1 13,9 15,5 13 7 25 13 SW 1011,3 - 45 0,0
22.06.2018 06:00:00 10,2 9,2 10,2 11,4 14,0 15,5 16 9 37 20 SSW 1011,2 - 35 0,0
22.06.2018 05:00:00 10,8 9,1 10,0 10,9 14,1 15,5 24 13 44 24 W 1011,2 - 0 0,5
22.06.2018 04:00:00 10,7 8,4 9,5 10,7 14,3 15,5 29 16 45 24 W 1011,3 - 0 4,2
22.06.2018 03:00:00 10,7 7,5 9,9 11,1 14,6 15,5 28 15 44 24 W 1011,3 - 0 0,3
22.06.2018 02:00:00 11,5 8,2 10,0 11,1 14,8 15,5 31 17 54 29 W 1011,2 - 0 0,1
22.06.2018 01:00:00 12,3 6,7 11,5 10,7 15,1 15,5 24 13 55 30 W 1011,5 - 0 0,0
22.06.2018 00:00:00 12,4 5,9 11,1 10,8 15,5 15,5 31 17 54 29 WNW 1011,7 - 0 0,0
21.06.2018 23:00:00 11,8 5,8 10,2 11,0 15,9 15,5 29 16 51 28 W 1011,7 - 0 0,0
21.06.2018 22:00:00 12,8 7,1 11,7 12,0 16,2 15,5 27 15 50 27 W 1011,7 - 13 0,0
21.06.2018 21:00:00 12,8 8,0 12,4 12,9 16,5 15,5 28 15 54 29 W 1011,4 - 14 0,0
21.06.2018 20:00:00 12,0 8,5 11,2 13,3 16,8 15,5 31 17 48 26 W 1011,3 - 2 0,0
21.06.2018 19:00:00 11,2 9,0 11,0 13,9 17,1 15,5 17 9 58 32 W 1011,0 - 0 2,7
21.06.2018 18:00:00 10,5 9,0 10,3 14,3 17,4 15,5 22 12 39 21 WNW 1010,4 - 0 0,8
21.06.2018 17:00:00 11,2 9,4 11,0 15,0 17,7 15,5 24 13 36 19 WNW 1009,3 - 0 0,2
21.06.2018 16:00:00 11,7 10,5 11,8 15,4 17,9 15,4 15 8 44 24 W 1008,9 - 0 7,2
21.06.2018 15:00:00 13,7 10,7 13,1 17,7 17,8 15,4 19 10 31 17 W 1007,9 - 12 0,0
21.06.2018 14:00:00 14,3 11,0 15,7 17,0 17,8 15,4 12 6 22 12 W 1008,2 - 0 0,0
21.06.2018 13:00:00 13,3 11,1 13,5 16,3 17,9 15,4 6 4 14 7 WNW 1008,6 - 0 0,2
21.06.2018 12:00:00 12,7 11,2 13,0 16,1 18,1 15,4 11 6 23 12 W 1008,8 - 0 0,7
21.06.2018 11:00:00 12,4 11,0 13,1 15,8 18,3 15,4 10 5 26 14 WNW 1008,4 - 0 2,4
21.06.2018 10:00:00 11,7 10,4 11,6 15,3 18,7 15,4 21 12 35 19 WNW 1008,7 - 0 2,3
21.06.2018 09:00:00 13,7 12,6 13,8 16,7 18,9 15,4 14 8 40 22 NW 1008,5 - 0 2,0
21.06.2018 08:00:00 15,6 15,1 15,7 17,3 19,1 15,4 15 8 31 17 W 1009,0 - 0 7,6
21.06.2018 07:00:00 16,8 15,7 16,8 18,1 19,3 15,4 7 4 14 8 SSW 1009,4 - 0 0,0
21.06.2018 06:00:00 16,3 15,2 16,2 17,7 19,5 15,4 9 5 18 10 WSW 1010,1 - 0 0,0
21.06.2018 05:00:00 16,1 14,9 15,2 17,5 19,8 15,4 13 7 21 12 SW 1010,9 - 0 0,0
21.06.2018 04:00:00 15,9 14,9 14,7 17,6 20,2 15,4 11 6 18 10 SW 1011,6 - 0 0,0
21.06.2018 03:00:00 15,2 14,5 12,9 18,0 20,6 15,4 8 4 14 7 WSW 1012,4 - 0 0,0
21.06.2018 02:00:00 14,7 14,2 10,7 18,5 21,0 15,4 6 3 11 6 SSW 1012,8 - 0 0,0
21.06.2018 01:00:00 15,9 14,5 13,5 19,4 21,4 15,4 8 5 11 6 WSW 1013,7 - 0 0,0
21.06.2018 00:00:00 17,1 15,4 15,3 20,3 21,8 15,4 9 5 30 16 W 1014,2 - 0 0,0
20.06.2018 23:00:00 19,4 15,8 18,2 21,3 22,2 15,4 19 10 33 18 WNW 1014,4 - 0 0,0
20.06.2018 22:00:00 20,8 14,5 19,1 22,3 22,5 15,4 12 6 18 10 SSW 1014,2 - 0 0,0
20.06.2018 21:00:00 22,4 14,4 21,1 23,8 22,7 15,4 12 7 25 13 SSW 1014,3 - 44 0,0
20.06.2018 20:00:00 24,4 14,2 24,4 25,3 22,8 15,4 14 7 31 17 SW 1014,7 - 45 0,0
20.06.2018 19:00:00 25,1 14,2 26,7 26,5 22,8 15,4 16 9 32 18 SW 1015,4 - 45 0,0
20.06.2018 18:00:00 25,2 14,4 27,1 27,1 22,6 15,4 22 12 39 21 SW 1016,1 - 41 0,0
20.06.2018 17:00:00 25,2 14,2 28,0 27,9 22,3 15,4 24 13 38 21 SW 1016,8 - 40 0,0
20.06.2018 16:00:00 23,9 13,9 25,5 28,0 21,9 15,4 29 16 41 22 SW 1017,3 - 31 0,0
20.06.2018 15:00:00 25,5 14,5 30,2 28,7 21,3 15,4 26 14 48 26 SW 1017,7 - 47 0,0
20.06.2018 14:00:00 24,7 13,2 28,7 28,6 20,5 15,4 28 15 46 25 SSW 1018,3 - 59 0,0
20.06.2018 13:00:00 24,2 14,3 29,1 27,0 19,7 15,4 23 13 35 19 SSW 1019,4 - 47 0,0
20.06.2018 12:00:00 22,4 13,6 26,7 26,5 18,8 15,4 22 12 35 19 SSW 1020,2 - 55 0,0
20.06.2018 11:00:00 21,3 13,7 26,4 23,5 18,2 15,4 21 11 30 16 SSW 1020,5 - 36 0,0
20.06.2018 10:00:00 18,9 12,9 21,7 21,0 17,7 15,4 15 8 26 14 SSW 1021,1 - 33 0,0
20.06.2018 09:00:00 17,2 10,8 20,4 19,4 17,4 15,4 12 7 21 11 SW 1021,6 - 36 0,0
20.06.2018 08:00:00 15,9 11,2 19,1 17,7 17,2 15,4 11 6 16 9 SW 1021,6 - 59 0,0
20.06.2018 07:00:00 13,8 10,8 15,7 15,8 17,3 15,4 10 5 15 8 SSW 1022,0 - 60 0,0
20.06.2018 06:00:00 11,4 9,9 11,8 14,5 17,6 15,4 6 3 12 7 SSW 1021,9 - 41 0,0
20.06.2018 05:00:00 10,1 9,4 8,7 14,1 18,0 15,4 9 5 11 6 S 1021,9 - 0 0,0
20.06.2018 04:00:00 10,9 9,8 7,7 14,7 18,3 15,4 8 4 13 7 SSW 1021,9 - 0 0,0
20.06.2018 03:00:00 12,8 10,1 11,0 15,2 18,7 15,4 11 6 23 13 WSW 1021,8 - 0 0,0
20.06.2018 02:00:00 13,4 9,9 11,6 15,6 19,1 15,4 13 7 24 13 W 1021,8 - 0 0,0
20.06.2018 01:00:00 14,4 9,7 12,7 16,2 19,6 15,4 15 8 26 14 W 1021,8 - 0 0,0
20.06.2018 00:00:00 14,5 10,0 12,8 16,9 20,0 15,4 14 8 26 14 W 1021,8 - 0 0,0
19.06.2018 23:00:00 14,7 9,9 12,9 17,8 20,5 15,4 13 7 23 12 W 1021,5 - 0 0,0
19.06.2018 22:00:00 15,4 10,4 13,7 18,9 20,9 15,4 14 7 29 16 W 1021,2 - 30 0,0
19.06.2018 21:00:00 17,0 10,7 16,3 20,5 21,1 15,3 19 10 36 20 W 1020,8 - 60 0,0
19.06.2018 20:00:00 18,3 11,3 18,7 22,1 21,2 15,3 24 13 45 24 W 1020,5 - 60 0,0
19.06.2018 19:00:00 19,3 11,5 21,0 23,3 21,2 15,3 27 14 45 24 W 1020,4 - 60 0,0
19.06.2018 18:00:00 19,8 12,5 22,0 24,3 20,9 15,3 28 15 43 23 W 1020,1 - 58 0,0
19.06.2018 17:00:00 20,9 14,4 24,0 24,4 20,7 15,3 28 15 42 23 W 1019,8 - 42 0,0
19.06.2018 16:00:00 20,7 14,8 23,8 23,7 20,4 15,3 31 17 43 23 W 1019,8 - 28 0,0
19.06.2018 15:00:00 19,1 14,9 21,1 22,8 20,2 15,3 28 15 45 24 W 1019,7 - 5 0,0
19.06.2018 14:00:00 19,6 14,8 22,0 23,3 19,9 15,3 24 13 46 25 W 1019,3 - 9 0,0
19.06.2018 13:00:00 20,7 14,0 24,1 24,1 19,4 15,3 28 15 46 25 WSW 1018,8 - 39 0,0
19.06.2018 12:00:00 20,3 14,5 24,9 22,7 18,9 15,3 31 17 44 24 W 1018,8 - 44 0,0
19.06.2018 11:00:00 18,6 14,4 21,3 20,0 18,7 15,3 26 14 46 25 WSW 1018,5 - 2 0,0
19.06.2018 10:00:00 17,4 13,8 17,7 19,1 18,6 15,3 24 13 37 20 W 1018,4 - 0 0,0
19.06.2018 09:00:00 17,7 14,0 19,5 19,1 18,6 15,3 21 11 37 20 SW 1017,6 - 11 0,0
19.06.2018 08:00:00 16,6 14,2 16,5 17,9 18,7 15,3 19 10 28 15 SW 1017,3 - 14 0,0
19.06.2018 07:00:00 16,5 13,6 16,2 17,6 18,8 15,3 19 10 31 17 SW 1017,3 - 50 0,0
19.06.2018 06:00:00 15,6 13,0 14,6 16,8 19,1 15,3 20 11 31 17 W 1017,1 - 13 0,0
19.06.2018 05:00:00 15,7 14,3 15,0 17,2 19,3 15,3 16 8 25 13 WSW 1017,0 - 0 0,0
19.06.2018 04:00:00 15,5 14,6 15,0 17,3 19,7 15,3 14 8 22 12 SW 1016,8 - 0 0,0
19.06.2018 03:00:00 15,4 14,6 14,7 17,7 20,0 15,3 14 8 20 11 SW 1017,0 - 0 0,0
19.06.2018 02:00:00 15,6 14,8 15,0 18,5 20,3 15,3 10 6 29 16 SW 1017,2 - 0 0,5
19.06.2018 01:00:00 16,1 15,1 15,7 19,2 20,6 15,3 21 11 31 17 W 1017,5 - 0 0,1
19.06.2018 00:00:00 16,3 15,3 16,3 19,8 20,9 15,3 6 4 11 6 SW 1017,2 - 0 0,0
18.06.2018 23:00:00 16,7 15,1 16,7 20,3 21,2 15,3 10 5 27 15 WNW 1017,6 - 0 0,0
18.06.2018 22:00:00 18,3 14,1 18,0 21,0 21,5 15,3 9 5 12 6 S 1017,3 - 0 0,0
18.06.2018 21:00:00 19,0 14,2 18,8 22,0 21,7 15,3 9 5 20 11 SSW 1017,1 - 0 0,0
18.06.2018 20:00:00 19,3 13,9 19,4 22,9 21,9 15,3 16 9 26 14 W 1017,3 - 0 0,0
18.06.2018 19:00:00 20,5 13,9 21,8 24,1 22,0 15,3 14 8 25 14 W 1017,5 - 18 0,0
18.06.2018 18:00:00 20,3 13,0 22,3 24,5 22,0 15,3 14 8 27 14 W 1017,6 - 1 0,0
18.06.2018 17:00:00 20,1 12,1 22,2 25,2 21,8 15,3 17 9 26 14 W 1017,9 - 0 0,0
18.06.2018 16:00:00 21,1 11,2 23,4 26,7 21,4 15,3 16 9 34 18 SW 1018,0 - 42 0,0

tt = temperature
td = dewpoint
tt 5cm = temperature 5cm
tt -5cm = temperature -5cm
tt -20cm = temperature -20cm
tt -100cm = temperature -100cm
ff = wind speed
fx = gusts
dd = wind direction
ppp = reduced air pressure
vv = visibility
sd = sunshine duration
rr = precipitation

Next stations